CZ-6A DEB, 54521

Orbit data source: Space-Track

CZ-6A DEB, 54521 is space debris in SSO originally from a launch on Fri, 11 Nov 2022 UTC launched from the Taiyaun Space Center, China (TSC). Debris objects in space refer to the collection of defunct objects orbiting the Earth. Examples of debris include non-operational satellites, rocket bodies, and fragments generated from explosions, collisions, or faulty payload assembly.

Loading next visibility...
Identifier
54521, 2022-151JZ
Orbit
SSO
Country
Flag of CNCN / PRC
Related business
Manufacturer
SAST
Mission
Spacecraft
Bus & Motor
Unknown
Mass
Unknown
Launch date (UTC)
2022-11-11 (4 years ago)
Launch vehicle
Unknown
Launch site
Taiyaun Space Center, China (TSC)
Object type
Payload
Rocket body
Debris
Shape & HBR
Unknown shape, 0.1 m
Radar Cross Section
Medium (>0.1 m² and <1 m²)

Expand to show TLE details & history
Last TLE update: 20 hours ago

TLE from 20 hours ago
0 CZ-6A DEB
1 54521U 22151JZ  26262.73845881 -.00000043  00000-0 -47736-6 0  9992
2 54521  98.8974 230.4975 0138121 186.5385 173.3980 13.97459720196257
Epoch: 2026-09-19T17:43Z
TLE epoch observation values (Epoch: 2026-09-19T17:43:22.841Z)
Latitude
-0.00002°
Longitude
-33.99035°
Altitude
1,005.416 km
Speed
7.298 km/s
True Right ascension
15h 21m 59s
True Declination
0° 00' 00"
Sunlit
Object was in daylight at epoch
Visualization orbit readout
Latitude
Unknown
Longitude
Unknown
Altitude
Unknown
Speed
Unknown
Apparent Right ascension
Unknown
Apparent Declination
Unknown
Sunlit
N/A
Visualization observer readout
Local Sidereal Time
06:58:47
Azimuth
Unknown
Elevation
Unknown
Doppler factor
Unknown
Orbital elements
Apogee altitude
1,000.326 km
Perigee altitude
799.278 km
Semi-major axis
7,277.939 km
Eccentricity
0.01381
Inclination
98.8974°
RAAN
230.4975°
Arg. of periapsis
186.5385°
True anomaly
173.5769°
Mean anomaly
173.398°
Eccentric anomaly
173.48775°
Mean motion
3.49567 °/min
Orbital period
102.98 mins
BSTAR
-4.7736e-7
Loading maneuver chart data...
Computing Atmospheric mass density...
Loading historical data...
Loading historical data...
Loading historical data...
Loading historical data...
Loading historical data...
Loading historical data...
Loading historical data...

Documentation

Showing up to 5 results
|